{"data":{"norad_id":43611,"epoch":"2026-09-19T08:07:38.686944Z","epoch_age_seconds":122337,"freshness":"FRESH","line1":"1 43611U 18069A   26262.33864221 -.00000298  00000+0  00000+0 0  9994","line2":"2 43611   0.0151 240.5245 0001817 292.4244  85.2245  1.00271222 29587","mean_motion":1.00271222,"eccentricity":0.0001817,"inclination_deg":0.0151,"raan_deg":240.5245,"arg_perigee_deg":292.4244,"mean_anomaly_deg":85.2245,"bstar":0,"rev_number":2958,"period_min":1436.1049673854,"perigee_km":35779.091430792,"apogee_km":35794.414151742,"semimajor_km":42164.889791267,"source":"CELESTRAK","updated_at":"2026-09-20T09:00:35.262085Z"}}